Погода в Благовещенском

Украина / Кировоградская область     48°19′48″N   30°13′55″E
темп.,
°C
ветер,
м/с
пор.,
м/с
влажн.,
%
обл.,
%
осадки,
мм/ч
давл.,
гПа
погр.,
м
17 апреля, сб
сб1700:00+4з6118599 0.1 1017572
03:00+3з511837 0.1 1018507
06:00+2з4119218 0.0 1019368
09:00+6з697484 0.0 1020820
12:00+9з6860100 0.0 10201557
15:00+9з4562100 0.0 10201116
18:00+10зсз336253 0.0 1019803
21:00+6с127688 0.0 102010
18 апреля, вс
вс1800:00+5в118099 0.0 101910
03:00+4зсз00837 0.0 101910
06:00+3ссз118634 0.0 101910
09:00+8всв00725 0.0 1019328
12:00+12ююз225699 0.0 10181075
15:00+14юз2345100 0.0 10161853
18:00+14юз1245100 0.0 10161684
21:00+11ю2356100 0.0 101648
19 апреля, пн
пн1900:00+10зсз225854 0.0 101631
03:00+8зсз347887 0.0 101674
06:00+7зсз228596 0.0 101612
09:00+10ссв337693 0.0 1015384
12:00+13св3259100 0.1 10141390
15:00+12ю2467100 0.4 1014328
18:00+12ссз2263100 0.0 1012599
21:00+11св2373100 0.1 101167
20 апреля, вт
вт2000:00+10св5982100 0.0 1009348
03:00+9св71284100 0.0 1006412
06:00+8ссв61186100 1.0 1004482
09:00+8ссв71386100 1.2 1002720
12:00+9с81385100 2.3 10001142
15:00+10ссз81283100 5.8 10001298
18:00+10сз81282100 2.0 10011262
21:00+9зсз71380100 2.3 1004763
21 апреля, ср
ср2100:00+8з61187100 0.2 1007759
03:00+7з5990100 0.2 1009349
06:00+6зюз4991100 0.0 1011332
09:00+8зсз6872100 0.1 1013823
12:00+10зсз5753100 0.0 10151638
15:00+13з4646100 0.0 10152009
18:00+12зюз4556100 0.0 1016884
21:00+10з2369100 0.1 101842